Location: Krakow
(50.0830°N, 19.9170°E)
Time: 11:47:02
(UTC+02:00)

A-11 Canister half - Pass Details

Date: 23 March 2026
Orbit: 1523 x 1684 km, 47.3° (Epoch: 16 April)

Event Time Altitude Azimuth Distance (km) Brightness Sun altitude
Rises 14:24:28 0° 288° (WNW) 4,801 12.0 30.8°
Reaches altitude 10° 14:28:31 10° 274° (W) 3,785 11.8 30.3°
Maximum altitude 14:35:06 21° 230° (SW) 2,936 13.2 29.5°
Drops below altitude 10° 14:41:35 10° 185° (S) 3,701 11.7 28.7°
Sets 14:45:31 0° 171° (S) 4,666 11.9 28.2°
